Location: Mahannah Oil Field
(37.4664°N, 96.6003°W)
Time: 08:48:19
(UTC+00:00)

deb Explorer IX - Pass Details

Date: 28 January 2021
Orbit: 538 x 1101 km, 38.8° (Epoch: 07 March)

Event Time Altitude Azimuth Distance (km) Brightness Sun altitude
Rises 03:14:32 0° 284° (WNW) 3,507 ? -41.5°
Reaches altitude 10° 03:17:20 10° 280° (W) 2,469 ? -42.0°
Enters shadow 03:18:51 18° 276° (W) 1,928 ? -42.3°
